Flag for USA

Past Weather in 40°43'49"N, 74°00'37"W, USA — Yesterday and Last 2 Weeks

Now
41 °F

Overcast.


Feels Like: 35 °F
Forecast: 47 / 41 °F
Wind: 10 mph from Northeast

Location: New York City - Central Park

Current Time: Mar 31, 2020 at 9:59:53 am

Latest Report: Mar 31, 2020 at 8:51 am


Visibility: 10 mi

Pressure: 30.05 "Hg

Humidity: 76%

Dew Point: 34 °F

Location of 40°43'49"N, 74°00'37"WLocation

Past Weather in 40°43'49"N, 74°00'37"W — Graph

°F

40°43'49"N, 74°00'37"W Temperature Yesterday

Maximum temperature yesterday: 52 °F (at 1:51 pm)
Minimum temperature yesterday: 42 °F (at 6:51 am)
Average temperature yesterday: 46 °F

High & Low Weather Summary for the Past Weeks

 TemperatureHumidityPressure
High77 °F (Mar 20, 5:51 pm)97% (Mar 23, 5:51 pm)30.69 "Hg (Mar 23, 5:51 pm)
Low33 °F (Mar 22, 7:51 am)16% (Mar 27, 7:51 pm)29.76 "Hg (Mar 20, 4:51 pm)
Average46 °F70%30.14 "Hg
* Reported Mar 16 8:51 am — Mar 31 8:17 am, 40°43'49"N, 74°00'37"W. Weather by CustomWeather, © 2020

Note: Actual official high and low records may vary slightly from our data, if they occured in-between our weather recording intervals... More about our weather records

40°43'49"N, 74°00'37"W Weather History for the Previous 24 Hours

Scroll right to see more
 ConditionsComfort  
Time TempWeatherWind HumidityBarometerVisibility
8:17 am
Tue, Mar 31
41 °FCloudy.8 mph80%30.07 "Hg10 mi
8:09 am41 °FMore clouds than sun.8 mph80%30.07 "Hg10 mi
7:51 am41 °FMostly cloudy.10 mph80%30.05 "Hg10 mi
6:51 am41 °FOvercast.9 mph82%30.04 "Hg10 mi
6:37 am41 °FOvercast.9 mph80%30.06 "Hg10 mi
6:13 am42 °FOvercast.3 mph82%30.04 "Hg10 mi
5:51 am42 °FOvercast.12 mph79%30.01 "Hg10 mi
4:51 am42 °FOvercast.3 mph89%29.98 "Hg10 mi
4:07 am42 °FMostly cloudy.3 mph89%30.00 "Hg10 mi
2:51 am43 °FFog.7 mph93%29.97 "Hg6 mi
1:58 am44 °FLight rain. Fog.3 mph93%30.00 "Hg4 mi
1:30 am44 °FLight rain. Fog.3 mph93%30.01 "Hg2 mi
12:51 am45 °FLight rain. Overcast.3 mph86%29.99 "Hg10 mi
11:51 pm
Mon, Mar 30
45 °FOvercast.No wind93%29.98 "Hg7 mi
11:18 pm45 °FLight rain. Low clouds.7 mph90%30.01 "Hg9 mi
10:51 pm45 °FOvercast.7 mph90%29.98 "Hg8 mi
10:37 pm45 °FMostly cloudy.7 mph90%30.01 "Hg9 mi
9:51 pm45 °FOvercast.6 mph90%29.98 "Hg10 mi
8:51 pm47 °FMostly cloudy.5 mph80%29.97 "Hg10 mi
7:51 pm48 °FOvercast.6 mph77%29.93 "Hg10 mi
7:35 pm48 °FMostly cloudy.5 mph77%29.96 "Hg10 mi
6:51 pm48 °FOvercast.6 mph74%29.92 "Hg10 mi
6:28 pm48 °FMore clouds than sun.7 mph74%29.94 "Hg9 mi
5:51 pm49 °FMostly cloudy.7 mph74%29.91 "Hg10 mi
5:05 pm49 °FPassing clouds.6 mph74%29.91 "Hg10 mi
4:51 pm48 °FPartly sunny.7 mph74%29.89 "Hg10 mi
3:51 pm49 °FOvercast.6 mph74%29.89 "Hg10 mi
2:51 pm51 °FOvercast.No wind74%29.89 "Hg8 mi
1:51 pm52 °FOvercast.5 mph69%29.90 "Hg9 mi
12:51 pm49 °FOvercast.5 mph74%29.92 "Hg10 mi
12:33 pm48 °FOvercast.5 mph74%29.95 "Hg10 mi
11:51 am47 °FOvercast.5 mph77%29.94 "Hg10 mi
10:51 am45 °FOvercast.5 mph82%29.96 "Hg10 mi
9:51 am43 °FOvercast.No wind86%29.98 "Hg10 mi
Weather by CustomWeather, © 2020

See weather overview

Advertising